Regional Weather Roundup
Issued by NWS

Home | Current Version | Previous Version | Text Only | Print | Product List | Glossary On
Versions: 1 2 3 4 5 6 7 8 9 10 11 12 13 14 15 16 17 18 19 20 21 22 23 24 25 26 27 28 29 30 31 32 33 34 35 36 37 38 39 40 41 42 43 44 45 46 47 48 49 50
000
ASUS43 KBIS 252020
RWRND

NORTH DAKOTA REGIONAL WEATHER ROUNDUP
NATIONAL WEATHER SERVICE BISMARCK ND
200 PM CST THU DEC 25 2014

NOTE: "FAIR" INDICATES FEW OR NO CLOUDS BELOW 12,000 FEET WITH NO
SIGNIFICANT WEATHER AND/OR OBSTRUCTIONS TO VISIBILITY.


NDZ001>003-009>011-017-252100-
NORTHWEST NORTH DAKOTA

CITY           SKY/WX    TMP DP  RH WIND       PRES   REMARKS
WILLISTON      CLOUDY    26  19  74 NW16      29.88R WCI  14
MINOT          CLOUDY    28  22  78 NW17      29.81R WCI  16
MINOT AFB      CLOUDY    26  26  98 NW17      29.81R WCI  14
$$

NDZ018>021-031>035-040>046-252100-
SOUTHWEST NORTH DAKOTA

CITY           SKY/WX    TMP DP  RH WIND       PRES   REMARKS
BISMARCK       CLOUDY    28  21  75 NW14      29.83R WCI  17
DICKINSON      CLOUDY    24  18  77 NW20      29.81R WCI  10
GARRISON         N/A     28  22  78 NW17      29.81R WCI  16
HETTINGER ARPT CLOUDY    26  19  74 N14G23    29.81R WCI  14
$$

NDZ004>008-012>016-024-026-027-054-252100-
NORTHEAST NORTH DAKOTA

CITY           SKY/WX    TMP DP  RH WIND       PRES   REMARKS
GRAND FORKS    CLOUDY    28  23  81 N12       29.79R WCI  18
GRND FRKS AFB  MIX PCPN  28  28 100 N8        29.81R
DEVILS LAKE    CLOUDY    27  21  80 N8        29.79R WCI  18
$$

NDZ022-023-025-028>030-036>039-047>053-252100-
SOUTHEAST NORTH DAKOTA

CITY           SKY/WX    TMP DP  RH WIND       PRES   REMARKS
FARGO          CLOUDY    30  25  81 NW12      29.79R
JAMESTOWN      CLOUDY    28  22  78 NW12      29.78R WCI  18
$$




USA.gov is the U.S. government's official web portal to all federal, state and local government web resources and services.